Weather in Moscow

United States     46°43′45″N   116°59′51″W
temp.,
°C
wind,
m/s
gust,
m/s
humid.,
%
clouds,
%
prec.,
mm/h
press.,
hPa
HPBL,
m
25 may, wed
wed2523:00+11se2261100 0.0 101413
02:00+10se2364100 0.0 101450
05:00+10se2270100 0.1 101541
08:00+12ssw267398 0.0 1015376
11:00+16wsw8116489 0.0 10141308
14:00+17w7106379 0.1 10131382
17:00+17w6966100 0.1 10121416
20:00+13wsw2381100 0.0 101256
26 may, thu
thu2623:00+11se118036 0.0 101310
02:00+10ese228677 0.0 101326
05:00+9ese3391100 0.0 101342
08:00+13ese3478100 0.0 1012218
11:00+18ese3465100 0.0 1010495
14:00+21ese1253100 0.0 1008722
17:00+20nw3467100 0.0 1006248
20:00+15nw2280100 0.2 100617
27 may, fri
fri2723:00+13w41182100 0.5 1008346
02:00+11w41298100 1.4 1011642
05:00+9sw5139148 1.8 1012516
08:00+13sw598299 0.0 1012879
11:00+15wsw71068100 0.3 10111455
14:00+15w81169100 0.4 10111274
17:00+13w71077100 1.0 1010905
20:00+10wsw3981100 0.2 1010430
28 may, sat
sat2823:00+8ssw1186100 0.3 101010
02:00+7ese118787 0.0 100811
05:00+7ene1186100 0.0 100710
08:00+10wsw1376100 0.1 1006476
11:00+9se2385100 0.6 1005511
14:00+9ese3590100 0.8 1004338
17:00+8se2395100 2.8 1002226
20:00+8ese1295100 0.4 100248
29 may, sun
sun2923:00+7ssw1194100 0.4 100211
02:00+6w31097100 1.1 1004470
05:00+5w3997100 3.5 1005589
08:00+4wsw51198100 1.9 1007750
11:00+4sw4998100 4.8 1008845
14:00+4ssw3797100 4.4 1009774
17:00+4ese3498100 10.9 1011258
20:00+2e3498100 4.4 1012157